PRRAS SBBG-SABE

Flight info

Callsign PRRAS
Flight time N/A
Altitude 12000
Route VUDUP UN741 PAPIX PAPIX2R
Aircraft B36T/L-BDFGLORY/S

Departure

Time 2026-04-18 16:49
Airport Comandante Gustavo Kraemer Airport (SBBG)

Arrival

Time N/A
Airport Aeroparque Jorge Newbery (SABE)
Time Latitude Longitude Altitude Speed Heading
2026-04-18 16:44 -31.38882 -54.11160 592 ft 0 kts 77°
2026-04-18 16:47 -31.38881 -54.11155 597 ft 1 kts 77°
2026-04-18 16:47 -31.38880 -54.11134 590 ft 4 kts 105°
2026-04-18 16:47 -31.38909 -54.11095 591 ft 8 kts 137°
2026-04-18 16:47 -31.38937 -54.11072 590 ft 0 kts 225°
2026-04-18 16:48 -31.38939 -54.11074 590 ft 6 kts 226°
2026-04-18 16:48 -31.39170 -54.11354 604 ft 88 kts 232°
2026-04-18 16:48 -31.39689 -54.11940 955 ft 110 kts 225°
2026-04-18 16:49 -31.40244 -54.12531 1636 ft 116 kts 225°
2026-04-18 16:49 -31.40833 -54.13240 2080 ft 126 kts 232°
2026-04-18 16:49 -31.41407 -54.13975 2783 ft 114 kts 231°
2026-04-18 16:49 -31.41919 -54.14614 3558 ft 107 kts 233°
2026-04-18 16:50 -31.42416 -54.15253 4238 ft 105 kts 233°
2026-04-18 16:50 -31.42907 -54.15880 4927 ft 104 kts 232°
2026-04-18 16:50 -31.43389 -54.16502 5652 ft 103 kts 232°
2026-04-18 16:50 -31.43866 -54.17116 6346 ft 101 kts 231°
2026-04-18 16:51 -31.44335 -54.17718 6990 ft 99 kts 231°
2026-04-18 16:51 -31.44797 -54.18309 7590 ft 98 kts 232°
2026-04-18 16:51 -31.45249 -54.18895 8236 ft 97 kts 232°
2026-04-18 16:51 -31.45699 -54.19473 8886 ft 95 kts 232°
2026-04-18 16:52 -31.46143 -54.20042 9544 ft 94 kts 232°
2026-04-18 16:52 -31.46581 -54.20605 10130 ft 93 kts 232°
2026-04-18 16:52 -31.47012 -54.21160 10681 ft 91 kts 232°
2026-04-18 16:52 -31.47438 -54.21709 11207 ft 91 kts 232°
2026-04-18 16:53 -31.47859 -54.22252 11744 ft 90 kts 232°
2026-04-18 16:53 -31.48348 -54.22893 11879 ft 125 kts 232°
2026-04-18 16:53 -31.49000 -54.23746 11882 ft 154 kts 231°
2026-04-18 16:53 -31.49765 -54.24724 11880 ft 170 kts 230°
2026-04-18 16:54 -31.50585 -54.25770 11870 ft 177 kts 230°
2026-04-18 16:54 -31.51431 -54.26851 11869 ft 182 kts 230°
2026-04-18 16:54 -31.52285 -54.27948 11869 ft 183 kts 230°
2026-04-18 16:54 -31.53145 -54.29054 11871 ft 183 kts 230°
2026-04-18 16:55 -31.54005 -54.30162 11869 ft 184 kts 230°
2026-04-18 16:55 -31.54870 -54.31277 11867 ft 185 kts 230°